Location: Grange Rosano
(44.4500°N, 6.9667°E)
Time: 07:46:58
(UTC+00:00)

NOSS 3-3 (A) - Pass Details

Date: 26 May 2022
Orbit: 779 x 1433 km, 63.4° (Epoch: 28 June)

Event Time Altitude Azimuth Distance (km) Brightness Sun altitude
Exits shadow 03:14:15 - 231° (SW) 2,591 5.5 -6.8°
Reaches altitude 10° 03:14:40 10° 232° (SW) 2,439 5.4 -6.7°
Maximum altitude 03:20:13 61° 313° (NW) 1,027 4.1 -5.9°
Drops below altitude 10° 03:26:39 10° 33° (NNE) 2,818 7.8 -5.0°
Sets 03:29:32 0° 37° (NE) 3,879 8.9 -4.6°
